"Pseudo-MPEC" for C1DN7J2

Created 2019 Nov 13 10:07:03 UT using Find_Orb

Click here for an explanation of pseudo-MPECs

 
 Astrometry: 
     C1DN7J2  C2019 11 03.50088 09 25 08.41 +04 49 04.0    ~B3Dq 20.7 GVNEOCPG96
     C1DN7J2  C2019 11 03.50711 09 25 08.60 +04 49 02.8    ~B3Dq 20.8 GVNEOCPG96
     C1DN7J2  C2019 11 03.51335 09 25 08.76 +04 49 01.8    ~B3Dq 20.3 GVNEOCPG96
     C1DN7J2  C2019 11 03.51960 09 25 08.86 +04 49 00.0    ~B3Dq 20.1 GVNEOCPG96
     C1DN7J2  C2019 11 03.52643 09 25 09.06 +04 48 59.7    ~B3Dq 20.1 GVNEOCPG96
     C1DN7J2  C2019 11 03.52753 09 25 09.10 +04 48 59.1    ~B3Dq 20.4 GVNEOCPG96
     C1DN7J2  C2019 11 03.52863 09 25 09.12 +04 48 59.0    ~B3Dq 20.1 GVNEOCPG96
     C1DN7J2  C2019 11 04.50566 09 25 35.49 +04 45 40.1    ~B4D7 20.5 GVNEOCPG96
     C1DN7J2  C2019 11 04.51203 09 25 35.65 +04 45 38.6    ~B4D7 20.7 GVNEOCPG96
     C1DN7J2  C2019 11 04.51839 09 25 35.81 +04 45 37.3    ~B4D7       VNEOCPG96
     C1DN7J2  C2019 11 04.52469 09 25 35.99 +04 45 36.3    ~B4D7 20.3 GVNEOCPG96
     C1DN7J2  C2019 11 08.42692 09 27 15.70 +04 32 40.3    ~B8BM 21.1 GVNEOCPG96
     C1DN7J2  C2019 11 08.43871 09 27 15.93 +04 32 38.1    ~B8BM 20.5 GVNEOCPG96
     C1DN7J2  C2019 11 08.45081 09 27 16.28 +04 32 35.9    ~B8BM 21.1 GVNEOCPG96
     C1DN7J2  C2019 11 08.46295 09 27 16.47 +04 32 34.1    ~B8BM 20.8 GVNEOCPG96

Station data:
(G96) Mt. Lemmon Survey  (N32.442754 W110.788720)  US/Arizona.  Observers T.
   A. Pruyne, B. M. Africano, E. J. Christensen, G. A. Farneth, D. C. Fuls,
   A. R. Gibbs, A. D. Grauer, H. Gröller, J. A. Johnson, R. A. Kowalski, S.
   M. Larson, G. J. Leonard, D. Rankin, R. L. Seaman, F. C. Shelly. 1.5-m
   reflector + 10K CCD.

Orbital elements:  C1DN7J2
   Perihelion 2021 Jun 20.805732 +/- 421 TT = 19:20:15 (JD 2459386.305732)
Epoch 2019 Nov  8.0 TT = JDT 2458795.5   Ju: 0.2050           AutoNEOCP
M 318.28170773 +/- 36               (J2000 ecliptic)
n   0.07061253 +/- 0.0352           Peri.   61.94856 +/- 240
a   5.79715396 +/- 1.93             Node   178.73338 +/- 330
e   0.5788597 +/- 0.216             Incl.   13.33191 +/- 1.5
P  13.96                   H 13.3   G  0.15   U 10.6  
q 2.44141477 +/- 2.64    Q 9.15289315 +/- 3.35
From 15 observations 2019 Nov. 3-8; mean residual 0".36
Residuals in arcseconds: 
191103 G96  .20+  .32-    191103 G96  .11-  .21+    191104 G96  .09+  .12+    
191103 G96  .55+  .25-    191103 G96  .25-  .34+    191108 G96  .51+  .28-    
191103 G96  .46+  .02+    191104 G96  .04+  .08+    191108 G96  .27-  .19-    
191103 G96  .54-  .50-    191104 G96  .05-  .13-    191108 G96  .63+  .04-    
191103 G96  .27-  .59+    191104 G96  .14-  .15-    191108 G96  .86-  .52+    

Ephemerides (geocentric):
Date (UTC) HH   RA              Dec         delta   r     elong  mag " sig PA
---- -- -- --  -------------   -----------  ------ ------ -----  --- ---- ---
2019 11 13 10  09 29 09.594   +04 16 55.97  4.7647 4.8197  87.3 20.8 6.15  54
2019 11 13 11  09 29 10.480   +04 16 48.32  4.7638 4.8195  87.3 20.8 6.24  54
2019 11 13 12  09 29 11.365   +04 16 40.67  4.7630 4.8193  87.3 20.8 6.32  54
2019 11 13 13  09 29 12.250   +04 16 33.02  4.7621 4.8191  87.4 20.8 6.41  54
2019 11 13 14  09 29 13.133   +04 16 25.38  4.7613 4.8189  87.4 20.8 6.50  54
2019 11 13 15  09 29 14.014   +04 16 17.74  4.7604 4.8187  87.4 20.8 6.59  54
2019 11 13 16  09 29 14.895   +04 16 10.10  4.7596 4.8185  87.5 20.8 6.68  54
2019 11 13 17  09 29 15.775   +04 16 02.47  4.7587 4.8183  87.5 20.8 6.77  54
2019 11 13 18  09 29 16.654   +04 15 54.85  4.7579 4.8181  87.6 20.8 6.86  54
2019 11 13 19  09 29 17.531   +04 15 47.23  4.7570 4.8179  87.6 20.8 6.95  54
2019 11 13 20  09 29 18.407   +04 15 39.61  4.7562 4.8177  87.6 20.8 7.04  54
2019 11 13 21  09 29 19.283   +04 15 32.00  4.7554 4.8175  87.7 20.8 7.13  54
2019 11 13 22  09 29 20.157   +04 15 24.39  4.7545 4.8173  87.7 20.8 7.23  55
2019 11 13 23  09 29 21.030   +04 15 16.78  4.7537 4.8171  87.7 20.8 7.32  55
2019 11 14 00  09 29 21.902   +04 15 09.18  4.7528 4.8169  87.8 20.8 7.42  55
2019 11 14 01  09 29 22.772   +04 15 01.59  4.7520 4.8167  87.8 20.8 7.51  55
2019 11 14 02  09 29 23.642   +04 14 53.99  4.7511 4.8165  87.8 20.8 7.61  55
2019 11 14 03  09 29 24.510   +04 14 46.41  4.7503 4.8163  87.9 20.8 7.71  55
2019 11 14 04  09 29 25.378   +04 14 38.82  4.7494 4.8161  87.9 20.8 7.80  55
2019 11 14 05  09 29 26.244   +04 14 31.24  4.7486 4.8159  88.0 20.8 7.90  55
2019 11 14 06  09 29 27.109   +04 14 23.67  4.7477 4.8158  88.0 20.8 8.00  55
2019 11 14 07  09 29 27.973   +04 14 16.10  4.7469 4.8156  88.0 20.8 8.10  55
2019 11 14 08  09 29 28.836   +04 14 08.53  4.7460 4.8154  88.1 20.8 8.20  55
2019 11 14 09  09 29 29.698   +04 14 00.97  4.7452 4.8152  88.1 20.8 8.31  55
2019 11 14 10  09 29 30.559   +04 13 53.41  4.7443 4.8150  88.1 20.8 8.41  56
2019 11 14 11  09 29 31.418   +04 13 45.86  4.7435 4.8148  88.2 20.8 8.51  56
2019 11 14 12  09 29 32.277   +04 13 38.31  4.7426 4.8146  88.2 20.8 8.61  56
2019 11 14 13  09 29 33.134   +04 13 30.77  4.7418 4.8144  88.3 20.8 8.72  56
2019 11 14 14  09 29 33.990   +04 13 23.22  4.7409 4.8142  88.3 20.8 8.82  56
2019 11 14 15  09 29 34.845   +04 13 15.69  4.7401 4.8140  88.3 20.8 8.93  56
2019 11 14 16  09 29 35.699   +04 13 08.16  4.7392 4.8138  88.4 20.8 9.04  56
2019 11 14 17  09 29 36.552   +04 13 00.63  4.7384 4.8136  88.4 20.8 9.14  56
2019 11 14 18  09 29 37.403   +04 12 53.11  4.7375 4.8134  88.4 20.8 9.25  56
2019 11 14 19  09 29 38.254   +04 12 45.59  4.7367 4.8132  88.5 20.8 9.36  56
2019 11 14 20  09 29 39.103   +04 12 38.07  4.7358 4.8130  88.5 20.8 9.47  56
2019 11 14 21  09 29 39.951   +04 12 30.56  4.7350 4.8128  88.6 20.8 9.58  56
2019 11 14 22  09 29 40.799   +04 12 23.06  4.7342 4.8126  88.6 20.8 9.69  57
2019 11 14 23  09 29 41.645   +04 12 15.56  4.7333 4.8124  88.6 20.8 9.81  57
2019 11 15 00  09 29 42.489   +04 12 08.06  4.7325 4.8122  88.7 20.8 9.92  57
2019 11 15 01  09 29 43.333   +04 12 00.57  4.7316 4.8120  88.7 20.8 10.0  57
2019 11 15 02  09 29 44.176   +04 11 53.08  4.7308 4.8118  88.7 20.8 10.1  57
2019 11 15 03  09 29 45.017   +04 11 45.60  4.7299 4.8116  88.8 20.8 10.3  57
2019 11 15 04  09 29 45.858   +04 11 38.12  4.7291 4.8114  88.8 20.8 10.4  57
2019 11 15 05  09 29 46.697   +04 11 30.64  4.7282 4.8112  88.9 20.8 10.5  57
2019 11 15 06  09 29 47.535   +04 11 23.17  4.7274 4.8110  88.9 20.8 10.6  57
2019 11 15 07  09 29 48.372   +04 11 15.71  4.7265 4.8108  88.9 20.8 10.7  57
2019 11 15 08  09 29 49.207   +04 11 08.24  4.7257 4.8106  89.0 20.8 10.9  57
2019 11 15 09  09 29 50.042   +04 11 00.79  4.7248 4.8104  89.0 20.8 11.0  57